Stations météo

réclame
Mon MeteoGroup
Porto Colom, Espagne (8309): Température de l'air & dewpoint: 22.05.2018 12:00:00 - 28.05.2018 12:00:00 (CEST)Porto Colom, Espagne (8309): Vitesse du vent & gusts: 22.05.2018 12:00:00 - 28.05.2018 12:00:00 (CEST)Porto Colom, Espagne (8309): Direction du vent: 22.05.2018 12:00:00 - 28.05.2018 12:00:00 (CEST)Porto Colom, Espagne (8309): reduced air pressure: 22.05.2018 12:00:00 - 28.05.2018 12:00:00 (CEST)Porto Colom, Espagne (8309): visibility: 22.05.2018 12:00:00 - 28.05.2018 12:00:00 (CEST)Porto Colom, Espagne (8309): Ensoleillement: 22.05.2018 12:00:00 - 28.05.2018 12:00:00 (CEST)Porto Colom, Espagne (8309): Quantités de précipitations: 22.05.2018 12:00:00 - 28.05.2018 12:00:00 (CEST)
Date & Time tt [°C] td [°C] ff [km/h] ff [knt] fx [km/h] fx [knt] dd ppp [hPa] vv [km] sd [min] rr [mm]
28.05.2018 12:00:00 - - - - - - - - - - -
28.05.2018 11:00:00 19,8 17,5 18 10 24 13 SSW 1014,9 10 0 0,0
28.05.2018 10:00:00 19,3 17,3 18 10 26 14 SW 1014,5 8 19 0,0
28.05.2018 09:00:00 18,6 16,7 24 13 31 17 SSW 1014,1 10 0 0,0
28.05.2018 08:00:00 - - - - - - - - - - -
28.05.2018 07:00:00 18,4 16,9 13 7 29 16 WSW 1013,4 9 0 0,0
28.05.2018 06:00:00 17,8 16,5 16 9 26 14 SW 1013,0 6 0 0,0
28.05.2018 05:00:00 18,2 16,6 15 8 34 19 W 1012,7 11 0 0,0
28.05.2018 04:00:00 18,5 17,1 24 13 36 20 SW 1013,5 7 0 0,0
28.05.2018 03:00:00 18,7 17,2 24 13 36 19 SW 1014,1 8 0 0,0
28.05.2018 02:00:00 18,8 17,5 23 12 29 16 SW 1013,7 7 0 -
28.05.2018 01:00:00 18,9 17,5 15 8 23 12 SW 1013,7 6 0 0,0
28.05.2018 00:00:00 19,0 17,3 9 5 21 11 WSW 1013,6 7 0 0,0
27.05.2018 23:00:00 19,6 17,4 10 5 23 12 WSW 1013,3 10 0 0,0
27.05.2018 22:00:00 19,7 17,1 15 8 30 16 W 1012,6 12 0 0,0
27.05.2018 21:00:00 20,3 16,7 14 8 39 21 WSW 1012,4 18 12 0,0
27.05.2018 20:00:00 21,9 16,4 21 12 37 20 W 1011,6 20 60 -
27.05.2018 19:00:00 23,3 16,6 16 9 39 21 W 1010,7 20 60 0,0
27.05.2018 18:00:00 23,7 16,2 21 11 36 20 W 1010,4 14 58 0,0
27.05.2018 17:00:00 23,6 16,9 22 12 40 22 WSW 1010,7 15 58 0,0
27.05.2018 16:00:00 23,8 16,8 18 10 37 20 WSW 1011,1 18 55 0,0
27.05.2018 15:00:00 22,8 16,8 20 11 36 19 WSW 1011,3 20 0 0,0
27.05.2018 14:00:00 22,2 17,1 16 8 34 18 W 1011,5 12 0 -
27.05.2018 13:00:00 21,8 17,4 20 11 31 17 W 1011,7 14 0 0,0
27.05.2018 12:00:00 21,7 18,3 17 9 26 14 SSW 1011,8 12 7 0,0
27.05.2018 11:00:00 20,7 18,5 4 2 8 4 SSW 1011,3 10 0 0,0
27.05.2018 10:00:00 20,0 17,9 3 1 11 6 E 1011,1 10 0 0,0
27.05.2018 09:00:00 19,3 17,5 9 5 16 9 NNW 1010,6 12 0 0,0
27.05.2018 08:00:00 19,0 17,5 5 3 9 5 NW 1010,8 10 0 -
27.05.2018 07:00:00 18,8 17,6 4 2 10 5 NNE 1010,3 9 0 0,0
27.05.2018 06:00:00 18,7 17,5 7 4 11 6 N 1010,2 10 0 0,0
27.05.2018 05:00:00 18,8 17,6 8 5 15 8 NNE 1010,1 7 0 0,0
27.05.2018 04:00:00 18,9 17,9 8 4 13 7 NNE 1010,5 8 0 0,0
27.05.2018 03:00:00 19,0 17,7 6 3 18 10 ENE 1011,4 10 0 0,0
27.05.2018 02:00:00 18,9 17,8 11 6 19 11 ENE 1011,6 8 0 -
27.05.2018 01:00:00 19,0 17,9 14 7 21 12 ENE 1012,4 8 0 0,0
27.05.2018 00:00:00 19,1 17,8 11 6 18 10 E 1013,1 9 0 0,0
26.05.2018 23:00:00 19,0 17,7 10 6 14 8 ENE 1013,2 10 0 0,0
26.05.2018 22:00:00 19,0 17,7 9 5 13 7 ENE 1012,9 9 0 0,0
26.05.2018 21:00:00 19,4 17,4 6 4 12 7 E 1013,0 12 0 0,0
26.05.2018 20:00:00 19,9 17,7 8 5 16 9 E 1012,8 12 1 -
26.05.2018 19:00:00 20,1 17,9 12 7 22 12 ENE 1012,3 13 0 0,0
26.05.2018 18:00:00 20,0 17,6 14 7 24 13 E 1012,9 11 0 0,0
26.05.2018 17:00:00 20,8 18,2 11 6 16 9 E 1013,2 15 0 0,0
26.05.2018 16:00:00 21,4 18,2 8 4 13 7 E 1013,6 13 0 0,0
26.05.2018 15:00:00 21,0 18,0 10 5 15 8 ENE 1013,5 16 0 0,0
26.05.2018 14:00:00 20,8 17,8 7 4 13 7 E 1013,8 16 0 -
26.05.2018 13:00:00 20,5 17,7 6 4 16 9 ESE 1014,0 14 0 0,0
26.05.2018 12:00:00 19,6 17,8 6 4 11 6 E 1013,6 9 0 0,0
26.05.2018 11:00:00 19,4 17,5 4 2 10 5 ESE 1013,8 7 0 0,0
26.05.2018 10:00:00 19,0 17,1 6 4 14 8 SE 1014,1 6 0 0,0
26.05.2018 09:00:00 18,8 17,1 8 4 18 10 SE 1013,7 9 0 0,0
26.05.2018 08:00:00 - - - - - - - - - - -
26.05.2018 07:00:00 18,9 17,4 10 5 18 10 ESE 1013,2 8 0 0,0
26.05.2018 06:00:00 18,8 17,1 10 5 16 8 ENE 1012,7 9 0 0,0
26.05.2018 05:00:00 18,8 17,1 8 4 20 11 E 1012,8 11 0 0,0
26.05.2018 04:00:00 18,9 17,8 11 6 17 9 E 1012,8 8 0 0,0
26.05.2018 03:00:00 19,0 17,9 7 4 11 6 ENE 1013,1 7 0 0,0
26.05.2018 02:00:00 19,3 17,8 1 1 9 5 NNE 1013,6 10 0 -
26.05.2018 01:00:00 19,4 17,9 5 3 15 8 S 1014,2 3,8 0 0,4
26.05.2018 00:00:00 19,3 17,8 6 3 10 5 E 1013,8 11 0 0,0
25.05.2018 23:00:00 19,0 17,7 8 4 11 6 E 1013,7 10 0 0,0
25.05.2018 22:00:00 19,3 17,6 6 3 10 5 E 1013,1 8 0 0,0
25.05.2018 21:00:00 19,7 17,6 7 4 12 7 ESE 1013,0 12 7 0,0
25.05.2018 20:00:00 20,8 18,0 7 4 16 8 ESE 1012,5 12 60 -
25.05.2018 19:00:00 21,3 18,1 8 5 16 9 ESE 1012,2 13 60 0,0
25.05.2018 18:00:00 21,8 17,8 9 5 15 8 E 1012,6 16 60 0,0
25.05.2018 17:00:00 22,4 17,9 7 4 15 8 ESE 1013,0 19 60 0,0
25.05.2018 16:00:00 22,6 18,4 8 5 18 10 E 1013,1 14 60 0,0
25.05.2018 15:00:00 22,4 17,9 12 6 18 10 E 1013,2 20 60 0,0
25.05.2018 14:00:00 21,9 17,3 11 6 17 9 E 1013,6 15 60 -
25.05.2018 13:00:00 22,7 17,6 8 4 13 7 E 1013,9 20 57 0,0
25.05.2018 12:00:00 21,8 16,7 7 4 15 8 E 1014,0 14 46 0,0
25.05.2018 11:00:00 21,0 17,1 10 5 18 10 NE 1014,0 19 11 0,0
25.05.2018 10:00:00 20,3 16,7 13 7 21 12 ENE 1013,7 16 23 0,0
25.05.2018 09:00:00 20,3 16,6 14 7 27 14 ENE 1013,6 18 60 0,0
25.05.2018 08:00:00 19,1 16,7 12 6 27 15 ENE 1013,6 17 16 -
25.05.2018 07:00:00 18,5 16,5 15 8 29 15 ENE 1013,4 16 0 0,0
25.05.2018 06:00:00 18,4 16,2 14 8 29 16 NE 1013,3 14 0 0,0
25.05.2018 05:00:00 18,6 16,4 18 10 29 16 NE 1013,2 14 0 0,0
25.05.2018 04:00:00 18,6 16,2 14 8 25 14 NE 1013,4 16 0 0,0
25.05.2018 03:00:00 18,7 16,1 13 7 23 13 ENE 1013,7 18 0 0,0
25.05.2018 02:00:00 18,2 16,6 11 6 21 11 NE 1014,3 14 0 -
25.05.2018 01:00:00 18,3 16,3 11 6 19 10 NE 1014,9 19 0 0,0
25.05.2018 00:00:00 18,6 16,2 13 7 23 13 ENE 1015,0 19 0 0,0
24.05.2018 23:00:00 18,7 16,1 14 8 25 13 ENE 1015,2 20 0 0,0
24.05.2018 22:00:00 18,7 16,3 14 7 23 13 ENE 1015,2 20 0 0,0
24.05.2018 21:00:00 19,0 16,4 11 6 22 12 ENE 1015,1 20 0 0,0
24.05.2018 20:00:00 19,6 16,5 12 7 19 11 ENE 1015,3 20 48 -
24.05.2018 19:00:00 20,6 16,6 13 7 19 10 ENE 1015,5 20 60 0,0
24.05.2018 18:00:00 20,9 16,5 13 7 20 11 E 1015,8 20 60 0,0
24.05.2018 17:00:00 21,2 16,6 13 7 20 11 ENE 1015,8 20 60 0,0
24.05.2018 16:00:00 22,2 17,4 10 6 17 9 ENE 1016,3 20 60 0,0
24.05.2018 15:00:00 22,1 17,7 9 5 17 9 ENE 1016,9 20 60 0,0
24.05.2018 14:00:00 22,2 17,8 9 5 16 9 E 1017,1 20 60 -
24.05.2018 13:00:00 21,3 17,3 12 6 18 10 E 1017,4 20 60 0,0
24.05.2018 12:00:00 21,0 17,8 12 6 22 12 ENE 1017,2 20 40 0,0
24.05.2018 11:00:00 18,8 17,5 13 7 21 11 NE 1017,1 14 3 0,0
24.05.2018 10:00:00 18,9 17,1 7 4 15 8 NE 1018,1 19 3 0,0
24.05.2018 09:00:00 18,9 16,7 10 5 14 8 NE 1017,8 20 46 0,0
24.05.2018 08:00:00 17,4 16,6 9 5 14 8 N 1018,0 18 25 -
24.05.2018 07:00:00 16,3 15,7 10 6 14 8 N 1017,6 6 0 0,2
24.05.2018 06:00:00 16,1 15,4 11 6 14 8 NNE 1017,4 4,2 0 0,0
24.05.2018 05:00:00 16,4 15,8 8 4 10 5 N 1017,5 5 0 0,0
24.05.2018 04:00:00 16,7 15,9 7 4 12 6 NNE 1017,4 6 0 0,0
24.05.2018 03:00:00 17,0 16,4 6 4 12 7 NNE 1017,4 6 0 0,0
24.05.2018 02:00:00 15,9 15,1 8 5 10 6 N 1017,7 4,8 0 -
24.05.2018 01:00:00 16,2 15,3 8 4 9 5 NNE 1018,2 8 0 0,0
24.05.2018 00:00:00 16,4 15,3 6 4 10 5 N 1018,6 9 0 0,0
23.05.2018 23:00:00 17,3 15,8 5 3 6 3 NNE 1018,6 12 0 0,0
23.05.2018 22:00:00 17,7 16,0 5 3 8 4 SW 1018,4 10 0 0,0
23.05.2018 21:00:00 18,6 16,2 4 2 11 6 S 1017,9 13 17 0,0
23.05.2018 20:00:00 19,6 16,6 9 5 13 7 S 1017,7 20 57 -
23.05.2018 19:00:00 20,3 16,6 11 6 14 8 S 1017,3 20 60 0,0
23.05.2018 18:00:00 20,5 16,7 14 8 18 10 S 1017,6 20 60 0,0
23.05.2018 17:00:00 21,6 17,4 16 8 23 12 SSW 1017,7 20 60 0,0
23.05.2018 16:00:00 22,0 17,5 15 8 24 13 SSW 1018,0 20 60 0,0
23.05.2018 15:00:00 20,8 16,8 22 12 26 14 SSW 1018,4 18 60 0,0
23.05.2018 14:00:00 21,1 17,3 17 9 26 14 SSW 1018,5 19 60 -
23.05.2018 13:00:00 21,0 17,2 20 11 28 15 SSW 1018,7 20 60 0,0
23.05.2018 12:00:00 20,6 17,2 19 11 23 13 SSW 1018,4 17 60 0,0
23.05.2018 11:00:00 20,2 16,8 16 9 19 11 SSW 1018,1 13 60 0,0
23.05.2018 10:00:00 19,1 16,9 13 7 17 9 SSW 1018,1 15 60 0,0
23.05.2018 09:00:00 17,8 16,8 4 2 6 3 SW 1017,9 6 5 0,0
23.05.2018 08:00:00 15,7 14,9 3 1 8 4 NW 1017,5 7 11 -
23.05.2018 07:00:00 14,4 13,5 7 4 9 5 N 1017,0 4,7 0 0,0
23.05.2018 06:00:00 16,1 15,0 4 2 10 6 W 1016,7 8 0 0,0
23.05.2018 05:00:00 16,6 15,3 6 4 18 10 WNW 1016,8 4,6 0 0,0
23.05.2018 04:00:00 16,4 15,3 8 4 12 7 W 1016,7 6 0 0,0
23.05.2018 03:00:00 16,5 15,2 5 3 13 7 WNW 1016,8 4,5 0 0,0
23.05.2018 02:00:00 16,9 15,8 9 5 16 8 W 1017,0 5 0 -
23.05.2018 01:00:00 16,3 15,0 6 3 10 5 NW 1017,2 6 0 0,0
23.05.2018 00:00:00 16,9 15,3 4 2 11 6 WNW 1017,3 7 0 0,0
22.05.2018 23:00:00 17,4 15,5 4 2 13 7 W 1016,9 12 0 0,0
22.05.2018 22:00:00 17,8 15,4 7 4 19 11 WSW 1016,0 16 0 0,0
22.05.2018 21:00:00 18,4 16,4 13 7 19 11 SW 1015,3 12 29 0,0
22.05.2018 20:00:00 21,1 14,5 11 6 24 13 W 1015,0 20 60 -
22.05.2018 19:00:00 20,3 16,3 18 10 30 16 SW 1014,5 20 60 0,0
22.05.2018 18:00:00 20,1 16,3 27 14 36 20 SSW 1014,1 20 60 0,0
22.05.2018 17:00:00 20,1 16,7 28 15 35 19 SW 1014,1 16 48 0,0
22.05.2018 16:00:00 18,7 16,8 16 9 35 19 SW 1014,8 20 3 0,0
22.05.2018 15:00:00 18,3 16,5 29 16 39 21 SSW 1014,3 15 4 2,8
22.05.2018 14:00:00 18,9 16,0 29 16 36 19 SSW 1014,1 20 10 -
22.05.2018 13:00:00 21,4 16,8 22 12 29 15 SSW 1014,2 20 60 0,0
22.05.2018 12:00:00 21,7 16,6 15 8 21 12 SSW 1014,2 20 60 0,0

tt = Température de l'air
td = dewpoint
ff = Vitesse du vent
fx = gusts
dd = Direction du vent
ppp = reduced air pressure
vv = visibility
sd = Ensoleillement
rr = Quantités de précipitations

stations d'obs. à proximité